Location: Huntsville
(41.2590°N, 111.7678°W)
Time: 08:20:52
(UTC+00:00)

BlueWalker 3 - Pass Details

Date: 06 December 2022
Orbit: 499 x 517 km, 53.2° (Epoch: 07 February)

Event Time Altitude Azimuth Distance (km) Brightness Sun altitude
Rises 02:14:03 0° 312° (NW) 2,625 6.1 -24.9°
Reaches altitude 10° 02:16:26 10° 323° (NW) 1,732 5.0 -25.3°
Enters shadow 02:17:41 18° 335° (NNW) 1,319 4.2 -25.5°
